WI3X Weather Reports


time (UTC)temp
F
wind
direction
speed
knots
gust
knots
rain 1hr
in
rain 24hr
in
rain mn
in
humidity
%
barometer
mb
20260505180004 81 199 17.4 24.3 0.00 0.00 0.00 37 1008.3
20260505175004 82 198 13.0 20.0 0.00 0.00 0.00 40 1008.2
20260505174004 81 203 12.2 21.7 0.00 0.00 0.00 39 1008.3
20260505173004 81 206 13.0 22.6 0.00 0.00 0.00 41 1008.4
20260505172004 81 206 11.3 21.7 0.00 0.00 0.00 41 1008.6
20260505171004 82 207 10.4 20.0 0.00 0.00 0.00 41 1008.6
20260505170004 81 206 14.8 22.6 0.00 0.00 0.00 39 1008.7
20260505165004 81 219 13.0 23.5 0.00 0.00 0.00 40 1008.9
20260505164004 81 226 11.3 20.9 0.00 0.00 0.00 42 1009.1
20260505163004 80 213 12.2 21.7 0.00 0.00 0.00 41 1009.2
20260505162004 81 230 10.4 20.0 0.00 0.00 0.00 41 1009.3
20260505161005 80 230 9.6 19.1 0.00 0.00 0.00 43 1009.4
20260505153004 79 232 8.7 17.4 0.00 0.00 0.00 45 1009.4
20260505152004 78 217 8.7 18.2 0.00 0.00 0.00 46 1009.5
20260505151004 78 225 10.4 19.1 0.00 0.00 0.00 47 1009.5
20260505125004 66 203 6.1 10.4 0.00 0.00 0.00 65 1010.6
20260505124004 65 202 4.3 7.8 0.00 0.00 0.00 66 1010.7
20260505123004 64 199 5.2 8.7 0.00 0.00 0.00 66 1010.6
20260505122004 63 221 2.6 7.8 0.00 0.00 0.00 70 1010.6
20260505121004 61 238 1.7 4.3 0.00 0.00 0.00 72 1010.5
20260505120025 60 232 0.9 3.5 0.00 0.00 0.00 73 1010.3
20260505115004 60 265 0.9 3.5 0.00 0.00 0.00 73 1010.3
20260505114005 59 277 0.9 1.7 0.00 0.00 0.00 75 1010.3
20260505113025 58 277 0.0 1.7 0.00 0.00 0.00 78 1010.1
20260505112025 57 277 0.0 1.7 0.00 0.00 0.00 80 1010.1
20260505111004 55 277 0.0 2.6 0.00 0.00 0.00 82 1010.1
20260505102025 55 160 0.0 1.7 0.00 0.00 0.00 77 1009.6
20260505101004 55 172 1.7 5.2 0.00 0.00 0.00 76 1009.4
20260505100004 55 166 2.6 3.5 0.00 0.00 0.00 79 1009.4
20260505095004 55 162 2.6 4.3 0.00 0.00 0.00 76 1009.4
20260505094004 55 162 1.7 4.3 0.00 0.00 0.00 76 1009.5
20260505093004 56 0 0.0 0.0 0.00 0.00 0.00 75 1009.5
20260505092004 57 0 0.0 0.0 0.00 0.00 0.00 73 1009.4
20260505091025 57 162 0.9 4.3 0.00 0.00 0.00 72 1009.3
20260505090025 57 171 3.5 6.1 0.00 0.00 0.00 72 1009.2
20260505085004 57 192 1.7 2.6 0.00 0.00 0.00 71 1009.2
20260505084025 57 192 1.7 2.6 0.00 0.00 0.00 71 1009.2
20260505083004 58 193 1.7 3.5 0.00 0.00 0.00 71 1009.1
20260505082004 58 195 0.9 2.6 0.00 0.00 0.00 70 1009.1
20260505081025 58 195 1.7 2.6 0.00 0.00 0.00 69 1009.0
20260505080025 59 195 1.7 2.6 0.00 0.00 0.00 69 1009.0
20260505075004 60 195 1.7 3.5 0.00 0.00 0.00 68 1009.0
20260505074004 60 183 2.6 4.3 0.00 0.00 0.00 68 1008.8
20260505073004 60 183 1.7 3.5 0.00 0.00 0.00 68 1008.7
20260505072025 60 183 0.0 2.6 0.00 0.00 0.00 67 1008.8
20260505071004 60 183 1.7 4.3 0.00 0.00 0.00 66 1008.8
20260505070004 61 183 1.7 3.5 0.00 0.00 0.00 65 1008.8
20260505065004 61 183 2.6 4.3 0.00 0.00 0.00 65 1008.8
20260505064004 61 182 2.6 5.2 0.00 0.00 0.00 65 1008.9
20260505063005 61 170 0.9 3.5 0.00 0.00 0.00 65 1009.1
20260505062005 62 166 1.7 2.6 0.00 0.00 0.00 63 1009.1
20260505061004 62 165 1.7 4.3 0.00 0.00 0.00 61 1009.1
20260505060025 62 167 2.6 5.2 0.00 0.00 0.00 60 1009.1
20260505055004 61 180 1.7 4.3 0.00 0.00 0.00 61 1009.1
20260505054025 61 194 1.7 4.3 0.00 0.00 0.00 62 1009.1
20260505053004 61 216 0.9 3.5 0.00 0.00 0.00 64 1009.2
20260505052025 60 218 2.6 6.1 0.00 0.00 0.00 64 1009.2
20260505051025 60 211 3.5 6.1 0.00 0.00 0.00 64 1009.1
20260505041004 61 185 2.6 3.5 0.00 0.00 0.00 59 1008.9
20260505040004 61 187 3.5 5.2 0.00 0.00 0.00 59 1008.8
20260505035005 61 211 1.7 4.3 0.00 0.00 0.00 58 1008.8
20260505034004 62 212 1.7 4.3 0.00 0.00 0.00 57 1008.8
20260505033025 62 205 2.6 4.3 0.00 0.00 0.00 56 1008.8
20260505032004 63 222 1.7 4.3 0.00 0.00 0.00 54 1008.8
20260505031004 64 194 2.6 4.3 0.00 0.00 0.00 53 1008.8
20260505030004 65 185 5.2 12.2 0.00 0.00 0.00 52 1008.7
20260505025004 65 171 6.1 14.8 0.00 0.00 0.00 51 1008.5
20260505024004 65 163 7.8 15.6 0.00 0.00 0.00 51 1008.4
20260505023004 65 160 7.8 14.8 0.00 0.00 0.00 51 1008.4
20260505022004 65 160 7.8 14.8 0.00 0.00 0.00 50 1008.3
20260505021004 65 164 8.7 13.9 0.00 0.00 0.00 50 1008.5
20260505020004 65 164 7.8 14.8 0.00 0.00 0.00 50 1008.5
20260505015004 65 160 7.8 13.9 0.00 0.00 0.00 50 1008.4
20260505014004 66 164 7.0 13.9 0.00 0.00 0.00 49 1008.6
20260505013004 66 167 5.2 10.4 0.00 0.00 0.00 49 1008.7
20260505012025 66 162 5.2 11.3 0.00 0.00 0.00 49 1008.6
20260505011003 66 162 5.2 10.4 0.00 0.00 0.00 48 1008.5
20260505010004 67 162 7.0 13.9 0.00 0.00 0.00 47 1008.3
20260505005004 67 163 7.8 13.9 0.00 0.00 0.00 47 1008.2
20260505004004 68 161 7.8 17.4 0.00 0.00 0.00 46 1008.1
20260505003004 68 162 7.8 14.8 0.00 0.00 0.00 46 1008.1
20260505002004 69 158 7.0 14.8 0.00 0.00 0.00 45 1008.0
20260505001004 70 154 6.1 12.2 0.00 0.00 0.00 43 1008.0
20260505000004 71 177 5.2 11.3 0.00 0.00 0.00 41 1007.9
20260504235004 71 187 6.1 11.3 0.00 0.00 0.00 42 1007.7
20260504234025 71 193 7.8 14.8 0.00 0.00 0.00 41 1007.7
20260504233025 72 195 9.6 17.4 0.00 0.00 0.00 41 1007.6
20260504232003 72 195 9.6 16.5 0.00 0.00 0.00 41 1007.6
20260504231004 72 196 9.6 16.5 0.00 0.00 0.00 40 1007.6
20260504230004 72 198 9.6 15.6 0.00 0.00 0.00 40 1007.7
20260504225004 73 199 12.2 19.1 0.00 0.00 0.00 39 1007.6
20260504224025 73 195 12.2 20.0 0.00 0.00 0.00 39 1007.7
20260504223004 73 193 13.0 20.9 0.00 0.00 0.00 38 1007.7
20260504222004 74 192 13.0 20.0 0.00 0.00 0.00 38 1007.8
20260504221004 74 195 11.3 19.1 0.00 0.00 0.00 37 1007.7
20260504220004 74 203 12.2 20.0 0.00 0.00 0.00 38 1007.8
20260504215004 74 191 10.4 17.4 0.00 0.00 0.00 38 1007.8
20260504214003 74 200 11.3 18.2 0.00 0.00 0.00 37 1007.9
20260504213004 74 191 12.2 19.1 0.00 0.00 0.00 37 1007.8
20260504212004 74 197 10.4 16.5 0.00 0.00 0.00 37 1007.8
20260504211025 74 194 11.3 20.0 0.00 0.00 0.00 38 1007.9
20260504210004 74 201 12.2 20.9 0.00 0.00 0.00 37 1007.9
20260504205004 74 201 10.4 20.0 0.00 0.00 0.00 38 1007.9
20260504204004 74 201 11.3 20.0 0.00 0.00 0.00 37 1007.9
20260504203025 74 202 9.6 19.1 0.00 0.00 0.00 36 1008.0
20260504202003 74 197 12.2 21.7 0.00 0.00 0.00 36 1008.3
20260504201003 74 192 12.2 20.0 0.00 0.00 0.00 39 1008.3
20260504200024 74 204 10.4 18.2 0.00 0.00 0.00 38 1008.6
20260504195004 74 208 10.4 21.7 0.00 0.00 0.00 37 1008.7
20260504194003 74 204 11.3 19.1 0.00 0.00 0.00 38 1008.8
20260504193004 74 210 11.3 20.0 0.00 0.00 0.00 38 1009.0
20260504192005 74 201 11.3 20.0 0.00 0.00 0.00 37 1009.0
20260504191003 74 218 8.7 18.2 0.00 0.00 0.00 39 1009.1
20260504190005 74 210 9.6 18.2 0.00 0.00 0.00 38 1009.3
20260504185005 73 215 7.8 15.6 0.00 0.00 0.00 38 1009.6
20260504184004 73 199 9.6 16.5 0.00 0.00 0.00 37 1009.6
20260504183004 74 223 7.8 14.8 0.00 0.00 0.00 42 1009.7
20260504182004 73 212 7.8 15.6 0.00 0.00 0.00 41 1009.9
20260504181003 72 200 10.4 22.6 0.00 0.00 0.00 38 1010.0